CZ-6A DEB, 56241

Orbit data source: Space-Track

CZ-6A DEB, 56241 is space debris in SSO originally from a launch on Fri, 11 Nov 2022 UTC launched from the Taiyaun Space Center, China (TSC). Debris objects in space refer to the collection of defunct objects orbiting the Earth. Examples of debris include non-operational satellites, rocket bodies, and fragments generated from explosions, collisions, or faulty payload assembly.

Loading next visibility...
Identifier
56241, 2022-151ABH
Orbit
SSO
Country
Flag of CNCN / PRC
Related business
Manufacturer
SAST
Mission
Spacecraft
Bus & Motor
Unknown
Mass
Unknown
Launch date (UTC)
2022-11-11 (4 years ago)
Launch vehicle
Unknown
Launch site
Taiyaun Space Center, China (TSC)
Object type
Payload
Rocket body
Debris
Shape & HBR
Unknown shape, 0.1 m
Radar Cross Section
Medium (>0.1 m² and <1 m²)

Expand to show TLE details & history
Last TLE update: 3 days ago

TLE from 3 days ago
0 CZ-6A DEB
1 56241U 22151ABH 26170.72198956  .00005481  00000-0  10332-2 0  9991
2 56241  98.8236 264.0475 0080279 310.0719  49.3459 14.62912563178583
Epoch: 2026-06-19T17:19Z
TLE epoch observation values (Epoch: 2026-06-19T17:19:39.897Z)
Latitude
-0.00012°
Longitude
96.18439°
Altitude
650.077 km
Speed
7.552 km/s
True Right ascension
17h 36m 11s
True Declination
0° 00' 00"
Sunlit
Object was in full shadow at epoch
Visualization orbit readout
Latitude
Unknown
Longitude
Unknown
Altitude
Unknown
Speed
Unknown
Apparent Right ascension
Unknown
Apparent Declination
Unknown
Sunlit
N/A
Visualization observer readout
Local Sidereal Time
21:29:39
Azimuth
Unknown
Elevation
Unknown
Doppler factor
Unknown
Orbital elements
Apogee altitude
737.561 km
Perigee altitude
624.223 km
Semi-major axis
7,059.029 km
Eccentricity
0.00803
Inclination
98.8236°
RAAN
264.0475°
Arg. of periapsis
310.0719°
True anomaly
50.04838°
Mean anomaly
49.3459°
Eccentric anomaly
49.69668°
Mean motion
3.65953 °/min
Orbital period
98.37 mins
BSTAR
0.0010332
Loading maneuver chart data...
Computing Atmospheric mass density...
Loading historical data...
Loading historical data...
Loading historical data...
Loading historical data...
Loading historical data...
Loading historical data...
Loading historical data...

Documentation

Showing up to 5 results
|